• In Österreich
  • Länderverzeichnis
  • Für 7 Tage
  • Wassertemperatur
  • Satellitenkarten
  • Wetterkarte
  • News
  • Widgets
  • user-avatar
    Anmelden

    Stündliche Wetter Biskira

    Heute, 24 September, Montag

    Zeit Temperatur Niederschläge Wind Luftdruck Luftfeuchtigkeit
    00:00 +30°C° 0 mm 1 m/S 755 mmHg 37%
    01:00 +30°C° 0 mm 1 m/S 755 mmHg 38%
    02:00 +30°C° 0 mm 1 m/S 755 mmHg 40%
    03:00 +29°C° 0 mm 1 m/S 755 mmHg 41%
    04:00 +29°C° 0 mm 1 m/S 755 mmHg 41%
    05:00 +29°C° 0 mm 1 m/S 755 mmHg 42%
    06:00 +29°C° 0 mm 1 m/S 755 mmHg 41%
    07:00 +30°C° 0 mm 1 m/S 755 mmHg 37%
    08:00 +31°C° 0 mm 1 m/S 755 mmHg 34%
    09:00 +32°C° 0 mm 1 m/S 756 mmHg 31%
    10:00 +33°C° 0 mm 1 m/S 755 mmHg 29%
    11:00 +34°C° 0 mm 1 m/S 755 mmHg 27%
    12:00 +35°C° 0 mm 1 m/S 755 mmHg 26%
    13:00 +35°C° 0 mm 1 m/S 755 mmHg 25%
    14:00 +36°C° 0 mm 2 m/S 755 mmHg 25%
    15:00 +37°C° 0 mm 2 m/S 754 mmHg 24%
    16:00 +36°C° 0 mm 2 m/S 754 mmHg 25%
    17:00 +36°C° 0 mm 2 m/S 754 mmHg 26%
    18:00 +35°C° 0 mm 2 m/S 754 mmHg 28%
    19:00 +35°C° 0 mm 2 m/S 755 mmHg 29%
    20:00 +34°C° 0 mm 2 m/S 755 mmHg 30%
    21:00 +33°C° 0 mm 1 m/S 755 mmHg 31%
    22:00 +32°C° 0 mm 1 m/S 755 mmHg 33%
    23:00 +32°C° 0 mm 1 m/S 755 mmHg 34%

    Morgen, 25 September, Dienstag

    Zeit Temperatur Niederschläge Wind Luftdruck Luftfeuchtigkeit
    00:00 +31°C° 0 mm 1 m/S 755 mmHg 36%
    01:00 +31°C° 0 mm 1 m/S 755 mmHg 37%
    02:00 +30°C° 0 mm 1 m/S 755 mmHg 38%
    03:00 +30°C° 0 mm 1 m/S 755 mmHg 39%
    04:00 +29°C° 0 mm 1 m/S 755 mmHg 40%
    05:00 +29°C° 0 mm 1 m/S 755 mmHg 41%
    06:00 +29°C° 0 mm 1 m/S 755 mmHg 41%
    07:00 +30°C° 0 mm 2 m/S 756 mmHg 39%
    08:00 +31°C° 0 mm 3 m/S 756 mmHg 36%
    09:00 +34°C° 0 mm 3 m/S 756 mmHg 34%
    10:00 +34°C° 0 mm 3 m/S 756 mmHg 32%
    11:00 +35°C° 0 mm 3 m/S 756 mmHg 31%
    12:00 +36°C° 0 mm 3 m/S 756 mmHg 29%
    13:00 +36°C° 0 mm 3 m/S 755 mmHg 28%
    14:00 +36°C° 0 mm 2 m/S 755 mmHg 28%
    15:00 +36°C° 0 mm 2 m/S 754 mmHg 27%
    16:00 +36°C° 0 mm 2 m/S 754 mmHg 28%
    17:00 +35°C° 0 mm 2 m/S 755 mmHg 29%
    18:00 +35°C° 0 mm 2 m/S 755 mmHg 30%
    19:00 +35°C° 0 mm 2 m/S 755 mmHg 32%
    20:00 +34°C° 0 mm 2 m/S 755 mmHg 34%
    21:00 +33°C° 0 mm 3 m/S 756 mmHg 36%
    22:00 +33°C° 0.1 mm 3 m/S 756 mmHg 38%
    23:00 +31°C° 0.1 mm 3 m/S 756 mmHg 39%

    übermorgen, 26 September, Mittwoch

    Zeit Temperatur Niederschläge Wind Luftdruck Luftfeuchtigkeit
    00:00 +31°C° 0.1 mm 3 m/S 756 mmHg 41%
    01:00 +30°C° 0.2 mm 3 m/S 756 mmHg 44%
    02:00 +30°C° 0.2 mm 3 m/S 756 mmHg 47%
    03:00 +29°C° 0.2 mm 3 m/S 756 mmHg 50%
    04:00 +29°C° 0.7 mm 3 m/S 756 mmHg 54%
    05:00 +28°C° 0.7 mm 2 m/S 757 mmHg 57%
    06:00 +28°C° 0.7 mm 2 m/S 757 mmHg 60%
    07:00 +28°C° 0.5 mm 2 m/S 757 mmHg 58%
    08:00 +29°C° 0.5 mm 3 m/S 757 mmHg 56%
    09:00 +30°C° 0.5 mm 3 m/S 758 mmHg 54%
    10:00 +30°C° 0.4 mm 3 m/S 758 mmHg 51%
    11:00 +31°C° 0.4 mm 3 m/S 757 mmHg 48%
    12:00 +33°C° 0.4 mm 3 m/S 757 mmHg 45%
    13:00 +32°C° 0.2 mm 2 m/S 757 mmHg 43%
    14:00 +34°C° 0.2 mm 2 m/S 756 mmHg 42%
    15:00 +33°C° 0.2 mm 1 m/S 756 mmHg 40%
    16:00 +34°C° 0.1 mm 2 m/S 756 mmHg 40%
    17:00 +34°C° 0.1 mm 2 m/S 757 mmHg 40%
    18:00 +32°C° 0.1 mm 2 m/S 757 mmHg 40%
    19:00 +33°C° 0 mm 3 m/S 757 mmHg 42%
    20:00 +32°C° 0 mm 4 m/S 758 mmHg 43%
    21:00 +32°C° 0 mm 5 m/S 758 mmHg 45%
    22:00 +30°C° 0.1 mm 6 m/S 758 mmHg 48%
    23:00 +29°C° 0.1 mm 6 m/S 758 mmHg 52%

    27 September, Donnerstag

    Zeit Temperatur Niederschläge Wind Luftdruck Luftfeuchtigkeit
    00:00 +28°C° 0.1 mm 6 m/S 758 mmHg 56%
    01:00 +28°C° 0.2 mm 5 m/S 758 mmHg 58%
    02:00 +28°C° 0.2 mm 5 m/S 759 mmHg 59%
    03:00 +27°C° 0.2 mm 4 m/S 759 mmHg 61%
    04:00 +27°C° 0.1 mm 4 m/S 759 mmHg 62%
    05:00 +26°C° 0.1 mm 4 m/S 759 mmHg 63%
    06:00 +26°C° 0.1 mm 4 m/S 759 mmHg 64%
    07:00 +27°C° 0 mm 4 m/S 759 mmHg 60%
    08:00 +27°C° 0 mm 4 m/S 760 mmHg 57%
    09:00 +28°C° 0 mm 5 m/S 760 mmHg 53%
    10:00 +29°C° 0 mm 4 m/S 760 mmHg 50%
    11:00 +29°C° 0 mm 4 m/S 759 mmHg 47%
    12:00 +30°C° 0 mm 4 m/S 759 mmHg 44%
    13:00 +30°C° 0 mm 3 m/S 759 mmHg 43%
    14:00 +30°C° 0 mm 2 m/S 758 mmHg 42%
    15:00 +31°C° 0 mm 2 m/S 757 mmHg 41%
    16:00 +30°C° 0 mm 2 m/S 757 mmHg 42%
    17:00 +30°C° 0 mm 2 m/S 757 mmHg 42%
    18:00 +30°C° 0 mm 2 m/S 757 mmHg 43%
    19:00 +30°C° 0 mm 2 m/S 758 mmHg 44%
    20:00 +29°C° 0 mm 2 m/S 758 mmHg 45%
    21:00 +29°C° 0 mm 2 m/S 758 mmHg 46%
    22:00 +29°C° 0 mm 2 m/S 758 mmHg 47%
    23:00 +28°C° 0 mm 2 m/S 757 mmHg 48%

    28 September, Freitag

    Zeit Temperatur Niederschläge Wind Luftdruck Luftfeuchtigkeit
    00:00 +28°C° 0 mm 2 m/S 757 mmHg 49%
    01:00 +27°C° 0 mm 2 m/S 757 mmHg 50%
    02:00 +27°C° 0 mm 3 m/S 757 mmHg 52%
    03:00 +26°C° 0 mm 3 m/S 756 mmHg 53%
    04:00 +26°C° 0 mm 2 m/S 756 mmHg 54%
    05:00 +25°C° 0 mm 2 m/S 756 mmHg 56%
    06:00 +25°C° 0 mm 2 m/S 757 mmHg 57%
    07:00 +25°C° 0 mm 2 m/S 757 mmHg 55%
    08:00 +26°C° 0 mm 2 m/S 757 mmHg 52%
    09:00 +27°C° 0 mm 2 m/S 757 mmHg 50%
    10:00 +28°C° 0 mm 2 m/S 756 mmHg 48%
    11:00 +28°C° 0 mm 2 m/S 756 mmHg 46%
    12:00 +29°C° 0 mm 1 m/S 755 mmHg 43%
    13:00 +30°C° 0 mm 1 m/S 755 mmHg 42%
    14:00 +30°C° 0 mm 1 m/S 754 mmHg 40%
    15:00 +31°C° 0 mm 1 m/S 754 mmHg 38%
    16:00 +31°C° 0 mm 2 m/S 754 mmHg 38%
    17:00 +30°C° 0 mm 2 m/S 754 mmHg 39%
    18:00 +30°C° 0 mm 2 m/S 754 mmHg 39%
    19:00 +30°C° 0 mm 2 m/S 754 mmHg 41%
    20:00 +30°C° 0 mm 2 m/S 754 mmHg 42%
    21:00 +29°C° 0 mm 1 m/S 755 mmHg 44%
    22:00 +29°C° 0 mm 1 m/S 754 mmHg 45%
    23:00 +28°C° 0 mm 1 m/S 754 mmHg 46%

    29 September, Samstag

    Zeit Temperatur Niederschläge Wind Luftdruck Luftfeuchtigkeit
    00:00 +28°C° 0 mm 1 m/S 754 mmHg 47%
    01:00 +28°C° 0 mm 1 m/S 754 mmHg 48%
    02:00 +27°C° 0 mm 1 m/S 754 mmHg 49%
    03:00 +27°C° 0 mm 1 m/S 754 mmHg 51%
    04:00 +27°C° 0 mm 1 m/S 754 mmHg 51%
    05:00 +26°C° 0 mm 1 m/S 754 mmHg 51%
    06:00 +26°C° 0 mm 1 m/S 754 mmHg 52%
    07:00 +27°C° 0 mm 1 m/S 754 mmHg 48%
    08:00 +28°C° 0 mm 1 m/S 754 mmHg 45%
    09:00 +29°C° 0 mm 2 m/S 754 mmHg 41%
    10:00 +30°C° 0 mm 2 m/S 754 mmHg 39%
    11:00 +31°C° 0 mm 2 m/S 754 mmHg 38%
    12:00 +31°C° 0 mm 3 m/S 753 mmHg 36%
    13:00 +32°C° 0 mm 2 m/S 753 mmHg 35%
    14:00 +32°C° 0 mm 2 m/S 753 mmHg 34%
    15:00 +32°C° 0 mm 2 m/S 752 mmHg 34%
    16:00 +32°C° 0 mm 2 m/S 753 mmHg 34%
    17:00 +31°C° 0 mm 2 m/S 753 mmHg 35%
    18:00 +31°C° 0 mm 2 m/S 753 mmHg 36%
    19:00 +31°C° 0 mm 2 m/S 753 mmHg 37%
    20:00 +30°C° 0 mm 2 m/S 754 mmHg 38%
    21:00 +30°C° 0 mm 1 m/S 754 mmHg 38%
    22:00 +29°C° 0 mm 1 m/S 754 mmHg 40%
    23:00 +29°C° 0 mm 1 m/S 754 mmHg 41%
    Mehr zeigen